User: anonymous   Login
Location: Caltech
(34.1382°N, 118.1253°W)
Time: 05:32:23
(UTC-07:00)
Language:

Iridium 62 - Orbit

View from above orbital plane
View from above orbital plane
View from above satellite
View from above satellite

Ground track
Ground track

The orbit data is extracted from the following two-line orbital elements,

1 25285U 98021A   15182.48171732  .00000025  00000-0  20368-5 0  9993
2 25285 086.3976 163.5096 0002294 090.4373 269.7085 14.34217922902290
Epoch (UTC): 01 July 2015 11:33:40
Eccentricity: 0.0002294
inclination: 86.3976°
perigee height: 776 km
apogee height: 779 km
right ascension of ascending node: 163.5096°
argument of perigee: 90.4373°
revolutions per day: 14.34217922
mean anomaly at epoch: 269.7085°
orbit number at epoch: 90229

The dashed part of the orbit path shows where the satellite is in the earth's shadow,  

DLR